Lapse_Rate
4.7 4.8 4.4 4.2 4.2 4.3 4.3 4.6 4.7 5.0 5.6 6.2 6.0 6.2 6.4 6.3 6.5 6.4 6.9 6.9 6.6 6.3 6.4 6.8 6.7 6.7 6.7 6.7 5.4 6.7 7.6 7.7 6.9 6.0 5.7 6.2 6.2 5.5 6.5 5.8 5.6 6.5 6.4 5.7 5.3 4.8 5.0
4.2 4.5 4.4 4.1 3.8 3.9 4.0 4.2 4.3 4.7 5.2 5.7 5.9 5.9 6.0 6.1 6.2 6.3 6.6 7.0 6.6 6.4 5.6 5.4 5.9 6.3 6.9 6.4 7.3 6.7 6.0 5.8 6.3 5.9 5.6 5.4 5.8 6.2 6.2 5.8 6.1 4.8 5.6 6.0 5.9 5.7 5.1
3.9 4.1 4.1 3.8 3.4 3.6 3.7 3.7 3.8 4.2 4.8 5.3 5.6 5.5 5.7 6.1 6.5 6.5 6.5 7.6 6.6 6.2 6.6 6.6 6.6 6.2 6.4 5.6 7.0 6.6 5.9 5.7 6.4 5.6 5.9 5.7 6.1 6.5 5.8 6.5 4.9 4.6 6.5 6.5 6.3 6.2 6.3
3.8 3.6 3.7 3.7 3.3 3.3 3.5 3.3 3.4 3.9 4.2 4.6 4.9 5.2 5.3 5.6 6.2 7.0 6.7 6.7 6.7 6.5 6.2 6.6 6.7 6.3 5.8 6.7 6.5 7.2 5.9 7.0 6.5 6.0 6.2 5.6 5.5 6.0 5.8 5.9 6.0 6.5 6.5 6.5 6.5 6.4 6.1
3.2 3.4 3.4 3.5 3.5 3.1 3.2 3.2 3.2 3.3 3.8 3.9 4.1 4.4 4.9 5.4 5.6 5.8 6.0 6.3 6.2 5.5 5.6 5.8 5.7 5.4 6.1 7.1 7.0 7.1 6.6 7.0 6.6 6.4 5.7 6.8 6.6 5.4 5.0 6.5 6.5 6.5 6.5 6.5 6.5 6.1 6.5
2.8 2.9 3.1 3.1 3.3 3.2 3.3 3.0 2.7 2.8 2.8 3.3 3.5 3.6 4.0 4.6 5.2 5.4 5.4 5.5 5.9 5.3 5.8 6.4 6.4 5.6 6.4 6.7 7.4 7.5 5.9 6.7 7.0 6.6 6.6 6.5 2.9 6.5 6.5 6.5 6.5 6.5 6.5 6.5 6.5 6.5 6.5
2.6 2.5 2.6 2.5 3.1 2.9 2.9 2.9 2.5 2.5 2.2 2.2 2.9 3.3 3.5 3.9 4.5 5.0 4.7 4.3 5.0 5.3 5.3 5.1 6.6 6.1 7.1 6.9 7.3 7.3 6.8 6.6 6.4 6.2 6.5 5.9 6.5 6.5 6.5 6.5 6.5 6.5 6.5 6.5 6.5 6.5 6.5
2.4 2.4 2.4 2.4 2.6 2.8 2.3 2.0 2.4 2.1 2.0 1.7 1.7 2.6 3.2 3.4 3.9 4.7 3.9 5.1 6.0 5.1 6.0 5.1 5.4 6.1 7.1 7.1 6.4 6.8 6.8 6.3 6.2 6.5 6.4 6.5 6.5 6.5 6.5 6.5 6.5 6.5 6.5 6.5 6.5 6.5 6.5
2.2 2.1 2.1 2.2 2.3 2.3 2.3 2.2 1.8 1.8 1.6 1.5 1.5 1.6 2.3 3.2 3.8 3.4 4.0 6.0 4.4 4.7 5.9 6.3 6.9 6.5 6.7 6.6 5.8 6.3 6.1 5.8 6.4 6.5 6.5 6.5 6.5 6.4 6.5 6.5 6.5 6.5 6.5 6.5 6.5 6.5 6.5
2.2 2.1 2.0 1.8 1.7 1.8 1.8 2.0 2.3 1.7 1.2 1.2 1.5 1.5 2.0 2.9 3.9 3.9 4.9 4.3 3.9 4.1 6.5 6.5 6.2 6.1 6.6 6.1 6.1 5.8 5.6 5.8 6.2 6.5 6.5 6.5 6.3 6.5 6.5 6.5 6.5 6.5 6.5 6.5 6.5 6.5 6.5
1.9 1.7 1.8 1.8 1.6 1.2 1.1 1.1 1.6 1.8 0.9 0.8 1.3 1.5 2.0 3.1 2.8 4.1 3.5 3.0 3.7 3.9 6.5 6.5 6.3 7.0 6.6 6.1 6.2 6.5 5.8 4.4 6.5 6.5 6.5 6.5 6.5 6.5 6.5 6.5 6.5 6.5 6.5 6.5 6.5 6.5 6.5
2.0 1.8 1.4 1.2 1.3 1.1 0.9 0.7 0.7 1.1 0.9 0.7 1.1 2.2 2.5 2.4 1.4 2.5 2.4 2.6 3.4 6.5 6.5 6.5 6.4 6.5 6.5 6.2 6.3 6.0 5.6 4.4 4.8 6.5 6.5 6.5 6.3 6.5 6.5 6.5 6.5 6.5 6.5 6.5 6.5 6.5 6.5
1.6 1.5 1.5 1.2 0.8 0.9 1.1 0.7 0.4 0.3 0.7 0.7 1.0 2.4 3.0 2.9 3.5 2.3 2.0 2.8 6.5 6.5 6.5 6.5 6.5 6.5 6.5 6.5 6.5 6.5 6.5 6.5 6.5 6.5 6.5 6.5 6.5 6.5 6.2 6.5 6.5 6.5 6.5 6.5 6.5 6.5 6.5
1.4 1.4 1.3 1.1 0.9 0.4 0.4 0.5 0.3 -0.1 0.1 0.7 1.0 1.8 2.8 2.2 2.5 2.5 2.0 6.1 6.5 6.5 6.5 6.5 6.5 6.5 6.5 6.5 6.5 6.5 6.5 6.5 6.5 6.5 6.5 6.5 6.5 6.5 6.5 6.5 6.5 6.5 6.5 6.5 6.5 6.5 6.5
1.5 1.2 1.2 1.2 0.8 0.6 0.3 -0.0 -0.1 -0.3 -0.3 0.4 1.2 0.2 1.3 0.8 1.9 0.9 2.9 6.5 6.5 6.5 6.5 6.5 6.5 6.5 6.5 6.5 6.5 6.5 6.5 6.5 6.5 6.5 6.5 6.5 6.5 6.5 6.5 6.5 6.5 6.5 6.5 6.5 6.5 6.5 6.5
1.3 1.1 1.0 0.9 0.9 0.4 0.3 -0.3 -0.3 -0.6 -0.6 0.2 0.2 1.5 1.9 2.0 1.7 0.7 5.4 6.5 6.5 6.5 6.4 6.5 6.5 6.5 6.5 6.5 6.5 6.5 6.5 6.5 6.5 6.5 6.3 6.5 6.5 6.5 6.5 6.4 6.4 6.5 6.5 6.5 6.5 6.5 6.5
1.5 1.1 1.1 0.5 0.1 0.1 -0.0 -0.2 -0.7 -0.8 -0.8 -0.4 0.2 2.8 2.6 1.7 0.8 1.2 6.5 6.5 6.5 6.3 6.4 6.5 6.5 6.5 6.5 6.5 6.5 6.5 6.5 6.5 6.5 6.5 6.2 6.5 6.5 6.5 6.5 6.5 6.5 6.5 6.5 6.5 6.5 6.5 6.5
1.4 1.1 0.7 0.3 -0.2 -0.3 -0.4 -0.5 -0.5 -1.0 -1.3 -1.3 -0.0 6.0 1.6 0.1 3.7 4.5 6.5 6.5 5.9 6.3 5.0 6.4 6.4 6.5 6.5 6.5 6.5 6.5 6.5 6.5 6.0 6.2 6.5 6.5 6.5 6.5 6.5 6.5 6.5 6.5 6.5 6.5 6.5 6.5 6.5
1.1 1.0 0.5 0.0 -0.2 -0.4 -0.5 -0.6 -0.7 -1.0 -1.1 -2.7 1.5 2.0 0.9 1.1 6.5 6.5 6.4 6.5 6.3 6.5 6.5 6.5 6.5 6.5 6.5 6.5 6.5 6.5 6.5 6.3 5.4 6.4 6.5 6.5 6.5 6.5 6.5 6.5 6.5 6.5 6.5 6.5 6.5 6.5 6.5
1.0 0.9 0.6 0.1 0.0 -0.1 -0.4 -0.6 -0.7 -1.0 -1.4 -1.6 0.6 6.5 1.3 -0.0 2.0 6.2 6.5 6.5 6.5 6.0 6.4 6.3 6.5 6.4 6.5 6.5 6.5 6.5 6.5 6.5 6.0 6.2 6.4 5.8 6.5 6.5 6.5 6.5 6.5 6.5 6.5 6.5 6.5 6.5 6.5
0.8 0.7 0.8 0.5 0.3 0.0 -0.4 -0.6 -0.8 -0.8 -1.3 -0.8 -0.6 5.0 4.2 6.5 5.8 6.2 6.4 6.5 6.5 6.5 6.3 6.2 6.5 6.5 6.5 6.5 6.5 6.5 6.5 6.5 6.4 6.3 6.3 6.5 6.5 6.5 6.5 6.5 6.5 6.5 6.5 6.5 6.5 6.5 6.5
0.8 0.6 1.0 0.9 0.7 0.5 0.0 -0.2 -0.4 -0.7 -0.7 -2.0 1.6 3.5 2.4 3.6 4.3 6.3 6.5 6.5 6.5 6.5 6.5 6.5 6.5 6.5 6.5 6.5 6.5 6.5 6.5 6.5 6.5 6.4 6.5 6.4 6.5 6.5 6.5 6.5 6.5 6.5 6.5 6.5 6.5 6.5 6.5
1.6 1.2 1.3 1.5 1.1 0.5 0.3 0.4 0.1 -0.3 -0.2 -1.2 -1.1 0.4 2.6 4.9 5.9 6.5 6.5 6.5 6.5 6.4 6.3 6.2 6.3 6.5 6.5 6.5 6.0 5.9 5.2 5.1 6.1 6.5 6.5 6.5 6.5 6.5 6.5 6.5 6.5 6.5 6.5 6.5 6.5 6.5 6.5
3.0 2.0 1.9 1.6 1.3 1.0 0.5 0.8 0.7 0.5 -0.5 -1.6 -1.2 -0.4 2.7 6.5 6.4 6.5 6.4 6.4 6.5 6.4 6.5 6.3 6.1 6.4 5.9 5.2 5.3 5.6 5.6 5.9 6.1 6.2 5.3 6.5 6.5 6.5 6.5 6.5 6.5 6.5 6.5 6.5 6.5 6.5 6.5
3.5 2.7 2.1 1.7 1.6 1.2 0.4 0.8 1.0 1.0 1.0 -0.6 -1.2 0.5 1.9 6.5 5.4 6.2 6.4 6.4 6.1 5.8 6.3 6.3 5.8 4.8 3.9 5.6 6.5 6.5 6.5 6.5 6.5 6.5 6.5 6.2 6.5 6.5 6.5 6.5 6.5 6.5 6.5 6.5 6.5 6.5 6.5
4.1 3.4 2.5 1.7 1.7 1.2 0.6 0.6 0.8 1.3 1.6 0.0 -0.3 -0.5 1.3 4.0 6.0 5.5 5.9 5.9 6.5 6.5 6.4 6.2 5.6 4.5 5.3 5.9 6.5 6.5 6.5 6.5 6.5 6.5 6.2 6.5 6.5 6.5 6.5 6.5 6.5 6.5 6.5 6.2 6.4 6.5 6.3
4.3 3.6 2.9 2.0 1.5 1.6 1.5 1.1 1.1 1.1 1.8 1.2 1.4 1.3 1.9 3.7 3.3 5.4 5.4 5.9 4.6 5.4 6.5 5.9 5.8 5.7 5.0 6.5 6.5 6.5 6.5 6.5 6.5 6.5 6.5 6.5 6.5 6.5 6.5 6.5 6.5 6.5 6.3 5.9 6.5 6.5 5.7
4.3 3.9 3.1 2.0 2.0 1.8 2.3 2.0 1.6 1.7 1.9 2.3 2.2 2.5 2.8 3.2 3.1 5.5 6.0 5.3 4.9 4.2 6.5 5.3 5.9 5.6 6.0 6.5 6.5 6.5 6.5 6.5 6.5 6.5 6.5 6.5 6.5 6.5 6.5 6.5 6.5 5.9 6.3 6.5 6.0 5.1 4.6
4.5 4.0 3.6 2.5 2.3 2.5 2.6 3.0 2.7 2.3 2.2 3.2 2.9 3.3 3.1 3.8 4.1 4.4 5.7 5.4 5.9 5.7 4.0 4.0 5.3 5.0 4.6 6.5 6.5 6.5 6.5 6.5 6.5 6.5 6.5 6.5 6.5 6.5 6.5 6.5 5.9 4.3 5.5 4.0 4.0 4.4 5.3
Wind_Speed
19 20 18 16 14 12 12 12 11 12 11 9 10 14 12 8 9 12 11 10 11 9 8 7 11 20 6 3 5 3 10 15 5 4 5 3 3 5 3 5 5 2 3 2 2 4 4
20 20 19 17 15 12 11 11 10 10 9 9 8 9 11 8 12 12 10 8 7 8 13 14 10 3 1 4 3 7 9 5 4 4 5 4 3 2 2 4 6 6 4 3 1 1 3
20 20 20 19 17 14 12 10 10 9 10 9 8 6 5 6 8 8 9 12 11 10 12 9 6 2 2 8 5 3 7 6 4 4 3 4 3 2 2 3 5 7 6 2 1 2 1
19 20 20 21 20 16 13 11 10 10 9 9 9 8 4 1 4 4 5 15 17 12 8 6 6 3 4 4 3 1 5 3 2 4 3 7 6 3 2 2 4 4 5 4 2 2 1
18 19 20 21 20 18 15 13 11 9 8 7 9 9 8 4 3 6 4 2 4 2 1 3 3 3 3 6 2 3 4 3 5 4 5 3 2 1 4 5 5 5 4 3 3 4 1
18 18 19 20 21 20 17 13 12 11 8 7 6 8 8 6 5 5 7 6 6 6 2 3 2 2 2 3 1 2 4 4 2 3 1 2 4 3 4 5 6 4 3 2 4 4 2
17 18 19 19 19 20 20 17 12 11 11 9 8 6 7 8 6 3 6 3 3 1 1 5 2 2 2 1 2 1 2 4 2 2 3 1 6 3 3 4 4 1 2 3 1 1 2
17 18 19 20 20 21 20 19 15 13 10 9 9 7 5 7 6 2 1 2 2 1 3 7 5 3 2 2 4 3 4 4 3 3 2 6 3 2 2 1 2 2 4 2 1 1 2
18 19 19 19 19 19 20 20 17 15 14 10 7 8 6 4 1 4 4 3 2 0 2 4 2 3 1 2 2 1 2 4 3 3 3 6 1 2 1 6 4 3 3 5 3 2 0
17 19 20 22 22 21 20 20 18 16 14 13 7 7 3 2 3 1 1 1 3 1 4 8 6 5 3 3 3 2 2 3 4 7 5 5 4 1 4 5 1 2 2 2 6 4 3
16 18 20 22 23 24 25 24 21 17 15 13 7 6 5 1 3 2 2 3 1 3 5 6 5 2 2 4 3 2 2 6 4 3 4 2 3 5 6 1 1 2 2 3 3 4 4
17 19 20 21 24 25 25 25 24 19 16 13 9 5 4 3 2 2 1 2 3 5 1 4 2 2 3 3 3 3 3 6 4 6 7 3 2 3 2 1 2 2 4 7 5 4 2
17 18 19 21 23 24 25 24 24 22 16 11 10 5 4 3 2 0 1 3 5 6 4 3 2 2 3 3 3 3 4 5 2 5 3 5 4 3 3 3 4 6 6 3 3 3 5
16 18 20 21 23 25 27 27 26 25 20 9 7 7 3 2 2 2 3 5 7 3 1 2 2 1 3 1 2 2 3 2 4 4 4 5 4 2 4 3 4 2 4 5 6 3 4
15 16 19 21 23 26 27 28 28 26 23 8 3 2 2 3 3 4 5 5 4 2 1 3 2 3 2 1 3 3 3 1 1 2 4 4 2 2 2 2 2 3 1 2 6 3 3
14 17 19 20 23 24 26 28 28 27 25 6 2 2 2 0 2 4 5 2 2 3 4 2 0 1 3 2 2 3 2 2 1 0 1 4 5 1 1 1 1 1 2 3 3 2 4
14 16 20 21 22 22 24 26 27 27 24 5 3 3 2 1 2 5 4 2 2 3 2 2 4 2 1 2 2 2 2 2 3 4 3 1 3 2 2 4 6 1 0 3 3 4 4
13 15 18 21 22 22 22 25 26 26 23 5 2 3 1 2 4 2 3 4 3 1 4 2 2 4 4 6 4 2 3 1 4 1 2 1 4 3 1 1 1 1 2 4 4 4 0
11 14 16 18 22 22 23 24 26 26 17 2 2 1 2 4 3 4 2 1 0 1 1 2 2 3 3 3 2 3 3 2 5 4 2 1 1 2 5 4 3 3 4 4 4 2 6
10 13 15 16 19 22 24 25 27 28 21 3 3 3 4 4 1 5 2 3 2 2 2 2 1 1 3 3 4 2 1 1 3 2 2 2 2 4 5 2 4 3 4 4 4 3 3
8 12 14 17 18 19 21 25 28 29 21 2 4 1 3 3 4 2 3 1 1 3 1 1 3 2 1 1 2 3 2 0 2 2 2 3 4 2 4 6 4 4 5 8 9 7 7
7 10 13 15 17 18 20 22 26 31 11 4 3 2 2 1 3 4 4 3 3 2 1 2 1 2 1 1 1 5 3 3 3 1 1 2 1 2 4 3 5 6 8 10 11 6 10
6 9 12 14 15 16 18 20 23 27 11 3 2 2 3 2 1 2 2 2 3 2 3 3 3 1 1 3 1 1 2 1 0 5 3 2 3 2 3 4 5 8 7 11 6 4 8
5 7 10 12 14 15 14 15 17 21 11 3 1 2 3 2 1 3 2 1 2 2 3 2 0 2 1 1 1 2 1 2 2 3 4 5 4 3 3 2 2 5 1 2 7 2 4
4 4 7 11 11 11 13 12 14 15 15 3 1 2 3 1 2 2 2 3 1 2 2 2 1 1 2 4 3 2 3 1 1 2 4 3 4 1 2 3 6 6 2 1 3 2 1
6 2 3 5 8 10 10 10 11 12 13 3 1 2 2 4 4 1 2 3 3 3 3 2 1 1 3 2 2 2 4 3 2 1 5 4 3 3 3 3 6 3 1 1 1 4 2
9 5 2 1 3 7 8 9 10 10 10 2 0 2 3 1 3 2 3 4 4 2 2 2 2 2 2 2 2 3 4 2 3 5 5 3 0 5 4 3 7 4 3 1 4 4 4
12 9 6 4 1 2 5 6 8 9 9 2 1 2 3 2 4 1 1 2 1 1 4 3 2 1 2 3 3 3 3 3 1 3 5 6 6 4 3 3 8 3 2 5 3 3 6
15 12 10 8 3 1 2 5 6 8 9 3 1 2 1 2 4 1 1 2 1 3 4 1 2 3 4 3 2 2 3 1 3 3 2 3 5 4 8 5 1 2 1 1 4 5 4
Wind_Direction
23 17 21 14 9 1 355 358 359 357 4 19 40 29 29 58 77 81 77 84 78 88 83 106 162 148 147 210 256 244 85 167 147 163 166 203 187 169 193 197 130 172 147 43 72 78 78
22 18 18 17 15 8 357 358 358 350 356 350 9 26 33 24 77 86 80 65 81 76 90 90 92 73 185 184 264 178 143 128 195 183 161 191 209 219 270 210 160 177 111 115 331 67 47
22 20 17 18 19 13 2 0 352 352 351 343 343 355 35 49 72 96 90 77 92 87 99 80 48 131 49 212 114 203 173 180 180 176 165 204 248 239 188 134 141 139 94 46 298 221 153
25 22 19 18 19 18 4 3 353 350 354 343 332 320 320 50 130 110 96 81 104 116 93 356 11 72 231 261 305 290 176 197 186 208 242 255 215 243 207 172 71 83 69 123 274 187 190
25 23 23 19 20 17 10 358 355 352 345 342 330 320 315 307 228 203 210 125 90 121 161 311 19 90 260 332 236 232 143 156 153 203 241 254 183 194 42 96 53 14 166 181 306 216 129
22 18 21 19 16 14 8 5 350 349 338 327 335 328 321 301 277 237 220 234 275 306 214 219 269 28 276 217 154 99 175 144 149 151 159 135 52 70 38 74 182 180 172 199 210 227 180
18 15 14 16 14 15 8 3 353 343 337 330 323 336 332 289 279 286 122 69 7 24 2 232 316 274 66 1 36 42 136 114 120 73 131 73 76 142 181 174 137 182 183 174 295 219 163
15 11 11 12 11 9 5 5 359 342 336 329 325 325 315 286 285 233 96 241 233 180 324 200 248 254 137 139 85 29 59 146 137 146 111 37 101 234 290 327 45 25 173 158 339 105 107
19 13 12 9 10 9 8 4 359 349 334 322 325 326 307 290 221 143 194 269 353 71 109 333 136 127 125 114 97 176 130 181 136 87 91 119 165 315 119 46 101 58 185 168 174 104 316
23 16 10 7 5 5 6 6 1 351 332 327 329 342 308 109 110 197 223 70 359 21 71 329 350 357 48 105 67 220 218 182 51 130 114 90 321 77 86 81 351 140 301 107 109 95 217
20 15 10 5 1 1 1 1 2 359 341 322 320 350 337 219 157 96 266 353 9 51 64 293 322 262 24 81 161 7 198 42 106 93 103 228 28 66 76 93 307 140 27 61 89 98 59
11 10 5 2 359 359 358 358 357 360 352 329 305 355 7 86 49 176 206 59 61 44 318 348 320 359 56 19 33 327 59 51 139 71 36 102 77 60 103 62 66 116 65 42 54 71 21
4 5 2 1 358 354 353 356 357 357 356 339 306 334 85 131 198 141 110 55 35 83 296 332 1 24 82 18 43 56 31 25 117 89 20 13 354 356 54 80 26 66 57 6 358 3 216
4 358 359 359 358 354 351 351 357 356 352 346 315 314 25 101 77 65 58 53 69 212 265 310 311 358 92 23 37 56 81 48 32 69 107 136 330 43 353 60 163 119 143 155 204 197 254
358 358 357 356 357 354 351 349 353 356 354 353 20 340 41 303 127 98 73 51 184 231 338 350 324 83 27 55 126 92 62 162 265 5 131 134 18 319 43 25 82 165 203 159 104 10 43
354 353 352 354 353 353 350 348 353 355 354 350 81 41 311 277 138 72 75 82 354 348 339 336 325 175 149 189 122 107 164 253 271 251 203 190 88 356 339 23 51 150 161 63 1 168 253
347 351 348 349 350 350 349 349 351 354 353 335 64 56 280 21 55 51 104 139 23 325 357 338 352 343 104 143 126 110 180 328 5 326 350 104 94 278 51 202 180 101 236 65 125 146 178
345 351 351 349 349 346 350 349 349 355 354 56 96 43 292 99 44 22 121 169 189 299 13 358 67 17 20 12 29 79 154 360 339 301 102 15 118 150 177 304 359 210 200 152 127 224 137
352 349 354 358 349 348 347 349 350 352 358 113 60 259 335 82 65 3 322 43 42 80 145 100 63 73 23 56 67 74 60 341 10 39 72 49 5 57 350 356 357 218 199 162 123 100 204
351 348 351 356 353 350 348 347 350 351 355 99 83 17 337 42 136 123 65 1 353 321 326 312 208 142 121 56 32 115 70 347 15 67 79 86 115 163 188 199 130 207 207 198 137 124 183
351 349 348 351 353 352 352 350 349 352 355 95 28 173 172 330 346 81 130 113 15 339 355 321 353 31 55 98 52 146 154 170 12 10 65 113 198 150 240 231 214 220 194 186 197 197 184
346 350 346 347 351 353 353 355 357 355 9 75 104 101 12 155 324 340 338 178 157 201 68 338 18 308 11 161 242 208 155 199 208 347 125 16 286 90 304 303 224 265 236 215 226 224 249
337 344 347 344 346 350 353 356 1 5 20 88 336 6 106 287 42 63 252 297 271 164 201 185 164 128 227 183 166 196 116 121 266 152 172 107 119 74 277 359 346 296 236 199 194 212 207
317 346 349 349 349 347 355 360 6 14 35 115 159 110 87 275 134 196 204 215 223 241 310 303 309 153 206 86 212 140 208 226 194 189 153 144 134 143 242 19 218 240 90 162 202 221 211
289 338 358 354 346 355 0 12 11 14 19 76 130 112 123 226 211 278 191 191 132 353 276 227 271 15 15 11 18 20 340 18 125 56 170 162 136 191 208 216 295 301 58 163 185 223 338
253 291 5 14 356 351 357 9 13 13 12 79 55 127 109 123 245 195 215 186 188 198 322 235 67 18 76 88 76 220 234 256 263 304 17 59 69 139 146 199 236 222 209 40 356 286 59
231 214 227 346 11 352 4 22 20 17 12 63 349 81 96 155 258 175 196 185 160 141 179 263 187 140 65 101 170 200 254 185 196 186 170 139 128 206 215 261 284 239 183 281 122 235 136
218 220 202 203 267 18 352 12 24 24 18 52 271 17 121 171 279 259 243 170 93 143 162 198 66 333 64 159 167 222 207 253 275 177 183 172 155 200 156 206 275 143 84 176 177 108 140
211 213 221 209 211 154 39 6 12 21 16 52 62 340 56 148 236 286 318 3 277 205 150 220 188 168 184 119 203 155 218 196 176 242 127 240 196 187 193 216 10 359 306 105 138 144 179